QPF
0.00 0.00 0.00 0.00 0.00 0.00 0.00 0.00 0.00 0.00 0.00 0.00 0.00 0.00 0.00 0.00 0.00 0.00 0.00 0.00 0.00 0.00 0.00 0.00 0.00 0.00 0.00 0.00 0.00 0.00 0.00 0.00 0.00 0.00 0.00 0.00 0.00 0.00 0.00 0.00 0.00 0.00 0.00 0.00 0.00
0.00 0.00 0.00 0.00 0.00 0.00 0.00 0.00 0.00 0.00 0.00 0.00 0.00 0.00 0.00 0.00 0.00 0.00 0.00 0.00 0.00 0.00 0.00 0.00 0.00 0.00 0.00 0.00 0.00 0.00 0.00 0.00 0.00 0.00 0.00 0.00 0.00 0.00 0.00 0.00 0.00 0.00 0.00 0.00 0.00
0.00 0.00 0.00 0.00 0.00 0.00 0.00 0.00 0.00 0.00 0.00 0.00 0.00 0.00 0.00 0.00 0.00 0.00 0.00 0.00 0.00 0.00 0.00 0.00 0.00 0.00 0.00 0.00 0.00 0.00 0.00 0.00 0.00 0.00 0.00 0.00 0.00 0.00 0.00 0.00 0.00 0.00 0.00 0.00 0.00
0.00 0.00 0.00 0.00 0.00 0.00 0.00 0.00 0.00 0.00 0.00 0.00 0.00 0.00 0.00 0.00 0.00 0.00 0.00 0.00 0.00 0.00 0.00 0.00 0.00 0.00 0.00 0.00 0.00 0.00 0.00 0.00 0.00 0.00 0.00 0.00 0.00 0.00 0.00 0.00 0.00 0.00 0.00 0.00 0.00
0.00 0.00 0.00 0.00 0.00 0.00 0.00 0.00 0.00 0.00 0.00 0.00 0.00 0.00 0.00 0.00 0.00 0.00 0.00 0.00 0.00 0.00 0.00 0.00 0.00 0.00 0.00 0.00 0.00 0.00 0.00 0.00 0.00 0.00 0.00 0.00 0.00 0.00 0.00 0.00 0.00 0.00 0.00 0.00 0.00
0.00 0.00 0.00 0.00 0.00 0.00 0.00 0.00 0.00 0.00 0.00 0.00 0.00 0.00 0.00 0.00 0.00 0.00 0.00 0.00 0.00 0.00 0.00 0.00 0.00 0.00 0.00 0.00 0.00 0.00 0.00 0.00 0.00 0.00 0.00 0.00 0.00 0.00 0.00 0.00 0.00 0.00 0.00 0.00 0.00
0.00 0.00 0.00 0.00 0.00 0.00 0.00 0.00 0.00 0.00 0.00 0.00 0.00 0.00 0.00 0.00 0.00 0.00 0.00 0.00 0.00 0.00 0.00 0.00 0.00 0.00 0.00 0.00 0.00 0.00 0.00 0.00 0.00 0.00 0.00 0.00 0.00 0.00 0.00 0.00 0.00 0.00 0.00 0.00 0.00
0.00 0.00 0.00 0.00 0.00 0.00 0.00 0.00 0.00 0.00 0.00 0.00 0.00 0.00 0.00 0.00 0.00 0.00 0.00 0.00 0.00 0.00 0.00 0.00 0.00 0.00 0.00 0.00 0.00 0.00 0.00 0.00 0.00 0.00 0.00 0.00 0.00 0.00 0.00 0.00 0.00 0.00 0.00 0.00 0.00
0.00 0.00 0.00 0.00 0.00 0.00 0.00 0.00 0.00 0.00 0.00 0.00 0.00 0.00 0.00 0.00 0.00 0.00 0.00 0.00 0.00 0.00 0.00 0.00 0.00 0.00 0.00 0.00 0.00 0.00 0.00 0.00 0.00 0.00 0.00 0.00 0.00 0.00 0.00 0.00 0.00 0.00 0.00 0.00 0.00
0.00 0.00 0.00 0.00 0.00 0.00 0.00 0.00 0.00 0.00 0.00 0.00 0.00 0.00 0.00 0.00 0.00 0.00 0.00 0.00 0.00 0.00 0.00 0.00 0.00 0.00 0.00 0.00 0.00 0.00 0.00 0.00 0.00 0.00 0.00 0.00 0.00 0.00 0.00 0.00 0.00 0.00 0.00 0.00 0.00
0.00 0.00 0.00 0.00 0.00 0.00 0.00 0.00 0.00 0.00 0.00 0.00 0.00 0.00 0.00 0.00 0.00 0.00 0.00 0.00 0.00 0.00 0.00 0.00 0.00 0.00 0.00 0.00 0.00 0.00 0.00 0.00 0.00 0.00 0.00 0.00 0.00 0.00 0.00 0.00 0.00 0.00 0.00 0.00 0.00
0.00 0.00 0.00 0.00 0.00 0.00 0.00 0.00 0.00 0.00 0.00 0.00 0.00 0.00 0.00 0.00 0.00 0.00 0.00 0.00 0.00 0.00 0.00 0.00 0.00 0.00 0.00 0.00 0.00 0.00 0.00 0.00 0.00 0.00 0.00 0.00 0.00 0.00 0.00 0.00 0.00 0.00 0.00 0.00 0.00
0.00 0.00 0.00 0.00 0.00 0.00 0.00 0.00 0.00 0.00 0.00 0.00 0.00 0.00 0.00 0.00 0.00 0.00 0.00 0.00 0.00 0.00 0.00 0.00 0.00 0.00 0.00 0.00 0.00 0.00 0.00 0.00 0.00 0.00 0.00 0.00 0.00 0.00 0.00 0.00 0.00 0.00 0.00 0.00 0.00
0.00 0.00 0.00 0.00 0.00 0.00 0.00 0.00 0.00 0.00 0.00 0.00 0.00 0.00 0.00 0.00 0.00 0.00 0.00 0.00 0.00 0.00 0.00 0.00 0.00 0.00 0.00 0.00 0.00 0.00 0.00 0.00 0.00 0.00 0.00 0.00 0.00 0.01 0.02 0.00 0.00 0.00 0.00 0.00 0.00
0.00 0.00 0.00 0.00 0.00 0.00 0.00 0.00 0.00 0.00 0.00 0.00 0.00 0.00 0.00 0.00 0.00 0.00 0.00 0.00 0.00 0.00 0.00 0.00 0.00 0.00 0.00 0.00 0.00 0.00 0.00 0.00 0.00 0.00 0.00 0.00 0.00 0.00 0.00 0.00 0.00 0.00 0.00 0.00 0.00
0.00 0.00 0.00 0.00 0.00 0.00 0.00 0.00 0.00 0.00 0.00 0.00 0.00 0.00 0.00 0.00 0.00 0.00 0.00 0.00 0.00 0.00 0.00 0.00 0.00 0.00 0.00 0.00 0.00 0.00 0.00 0.00 0.00 0.00 0.00 0.00 0.00 0.00 0.00 0.00 0.00 0.00 0.00 0.00 0.00
0.00 0.00 0.00 0.00 0.00 0.00 0.00 0.00 0.00 0.00 0.00 0.00 0.00 0.00 0.00 0.00 0.00 0.00 0.00 0.00 0.00 0.00 0.00 0.00 0.00 0.00 0.00 0.00 0.00 0.00 0.00 0.00 0.00 0.00 0.00 0.00 0.00 0.00 0.00 0.00 0.00 0.00 0.00 0.00 0.00
0.00 0.00 0.00 0.00 0.00 0.00 0.00 0.00 0.00 0.00 0.00 0.00 0.00 0.00 0.00 0.00 0.00 0.00 0.00 0.00 0.00 0.00 0.00 0.00 0.00 0.00 0.00 0.00 0.00 0.00 0.00 0.00 0.00 0.00 0.00 0.00 0.00 0.00 0.00 0.00 0.00 0.00 0.00 0.00 0.00
0.00 0.00 0.00 0.00 0.00 0.00 0.00 0.00 0.00 0.00 0.00 0.00 0.00 0.00 0.00 0.00 0.00 0.00 0.00 0.00 0.00 0.00 0.00 0.00 0.00 0.00 0.00 0.00 0.00 0.00 0.00 0.00 0.00 0.00 0.00 0.00 0.00 0.00 0.00 0.00 0.00 0.00 0.00 0.00 0.00
0.00 0.00 0.00 0.00 0.00 0.00 0.00 0.00 0.00 0.00 0.00 0.00 0.00 0.00 0.00 0.00 0.00 0.00 0.00 0.00 0.00 0.00 0.00 0.00 0.00 0.00 0.00 0.00 0.00 0.00 0.00 0.00 0.00 0.00 0.00 0.00 0.00 0.00 0.00 0.00 0.00 0.00 0.00 0.00 0.00
0.00 0.00 0.00 0.00 0.00 0.00 0.00 0.00 0.00 0.00 0.00 0.00 0.00 0.00 0.00 0.00 0.00 0.00 0.00 0.00 0.00 0.00 0.00 0.00 0.00 0.00 0.00 0.00 0.00 0.00 0.00 0.00 0.00 0.00 0.00 0.00 0.00 0.00 0.00 0.00 0.00 0.00 0.00 0.00 0.00
0.00 0.00 0.00 0.00 0.00 0.00 0.00 0.00 0.00 0.00 0.00 0.00 0.00 0.00 0.00 0.00 0.00 0.00 0.00 0.00 0.00 0.00 0.00 0.00 0.00 0.00 0.00 0.00 0.00 0.00 0.00 0.00 0.00 0.00 0.00 0.00 0.00 0.00 0.00 0.00 0.00 0.00 0.00 0.00 0.00
0.00 0.00 0.00 0.00 0.00 0.00 0.00 0.00 0.00 0.00 0.00 0.00 0.00 0.00 0.00 0.00 0.00 0.00 0.00 0.00 0.00 0.00 0.00 0.00 0.00 0.00 0.00 0.00 0.00 0.00 0.00 0.00 0.00 0.00 0.00 0.00 0.00 0.00 0.00 0.00 0.00 0.00 0.00 0.00 0.00
0.00 0.00 0.00 0.00 0.00 0.00 0.00 0.00 0.00 0.00 0.00 0.00 0.00 0.00 0.00 0.00 0.00 0.00 0.00 0.00 0.00 0.00 0.00 0.00 0.00 0.00 0.00 0.00 0.00 0.00 0.00 0.00 0.00 0.00 0.00 0.00 0.00 0.00 0.00 0.00 0.00 0.00 0.00 0.00 0.00
0.00 0.00 0.00 0.00 0.00 0.00 0.00 0.00 0.00 0.00 0.00 0.00 0.00 0.00 0.00 0.00 0.00 0.00 0.00 0.00 0.00 0.00 0.00 0.00 0.00 0.00 0.00 0.00 0.00 0.00 0.00 0.00 0.00 0.00 0.00 0.00 0.00 0.00 0.00 0.00 0.00 0.00 0.00 0.00 0.00
0.00 0.00 0.00 0.00 0.00 0.00 0.00 0.00 0.00 0.00 0.00 0.00 0.00 0.00 0.00 0.00 0.00 0.00 0.00 0.00 0.00 0.00 0.00 0.00 0.00 0.00 0.00 0.00 0.00 0.00 0.00 0.00 0.00 0.00 0.00 0.00 0.00 0.00 0.00 0.00 0.00 0.00 0.00 0.00 0.00
0.00 0.00 0.00 0.00 0.00 0.00 0.00 0.00 0.00 0.00 0.00 0.00 0.00 0.00 0.00 0.00 0.00 0.00 0.00 0.00 0.00 0.00 0.00 0.00 0.00 0.00 0.00 0.00 0.00 0.00 0.00 0.00 0.00 0.00 0.00 0.00 0.00 0.00 0.00 0.00 0.00 0.00 0.00 0.00 0.00
MSLP
1016.24 1015.77 1015.31 1014.94 1014.37 1013.90 1013.35 1012.75 1012.23 1011.85 1011.41 1010.91 1010.18 1009.80 1009.43 1008.90 1007.44 1006.64 1004.47 1004.23 1004.13 1004.00 1004.24 1002.18 1001.84 1001.01 1000.55 998.88 998.59 997.86 997.35 998.34 999.38 1000.19 1001.61 1001.99 1002.29 1003.29 1003.66 1003.81 1004.13 1004.40 1005.20 1006.34 1007.81
1016.23 1015.80 1015.34 1014.87 1014.38 1013.81 1013.34 1012.81 1012.25 1011.77 1011.22 1010.65 1010.07 1009.69 1009.33 1008.87 1006.91 1004.35 1004.32 1003.88 1003.92 1004.04 1003.41 1001.39 1000.03 999.65 998.51 998.14 997.47 996.86 998.15 999.36 999.87 1000.45 1001.31 1001.91 1002.47 1003.23 1003.40 1003.90 1004.38 1004.46 1005.54 1006.98 1007.87
1016.28 1015.83 1015.37 1014.86 1014.32 1013.79 1013.23 1012.72 1012.18 1011.67 1011.05 1010.46 1009.89 1009.45 1009.17 1008.64 1005.65 1002.69 1003.78 1003.77 1003.72 1003.85 1002.75 1001.36 1000.32 998.66 997.41 997.15 997.20 997.78 998.58 999.57 1000.64 1001.05 1001.47 1001.91 1002.37 1002.63 1002.25 1002.79 1003.94 1005.03 1006.15 1007.06 1007.72
1016.44 1015.90 1015.39 1014.87 1014.27 1013.72 1013.18 1012.58 1012.04 1011.45 1010.97 1010.40 1009.67 1009.17 1008.77 1007.26 1003.66 1002.86 1003.54 1003.56 1003.47 1003.26 1002.37 1000.94 998.95 997.58 996.78 996.88 997.71 998.18 999.24 999.83 1000.67 1001.12 1001.48 1001.85 1002.22 1002.74 1002.95 1003.49 1003.91 1005.22 1006.39 1006.88 1007.37
1016.53 1015.98 1015.32 1014.68 1014.18 1013.61 1013.01 1012.34 1011.88 1011.26 1010.69 1010.19 1009.50 1009.13 1007.53 1005.18 1002.26 1002.76 1003.27 1003.26 1003.05 1002.84 1001.61 1000.14 998.50 997.64 996.80 997.10 997.53 998.11 999.21 1000.04 1000.74 1001.07 1001.45 1001.86 1002.44 1003.10 1003.66 1004.12 1004.53 1005.58 1006.45 1006.82 1006.94
1016.51 1015.91 1015.28 1014.63 1014.00 1013.34 1012.76 1012.07 1011.55 1010.99 1010.37 1009.97 1009.36 1009.12 1007.20 1003.50 1002.03 1002.07 1002.41 1002.31 1001.70 1001.69 1000.62 999.87 998.75 998.57 997.56 997.35 997.74 998.63 999.10 999.66 1000.22 1000.85 1001.30 1001.50 1002.20 1002.51 1004.01 1004.30 1004.92 1005.75 1006.17 1006.52 1006.57
1016.52 1015.91 1015.21 1014.51 1013.82 1013.06 1012.39 1011.77 1011.11 1010.55 1009.96 1009.62 1009.28 1008.56 1005.39 1002.28 1002.05 1001.85 1001.95 1001.31 1000.94 1000.84 1000.00 999.58 999.42 998.71 997.86 997.61 998.45 998.45 998.47 999.07 999.65 1000.29 1000.28 1000.66 1001.12 1002.51 1003.80 1004.32 1004.91 1005.45 1005.78 1006.01 1006.20
1016.50 1015.87 1015.16 1014.43 1013.63 1012.76 1011.97 1011.30 1010.62 1010.02 1009.53 1009.17 1009.06 1007.64 1003.31 1002.14 1002.11 1001.99 1001.48 1001.09 1001.00 1000.73 1000.38 999.85 999.63 999.03 998.06 998.10 998.19 997.77 997.75 998.00 999.00 999.88 1000.11 1000.25 1000.94 1002.57 1003.56 1004.00 1004.39 1004.94 1005.37 1005.85 1006.10
1016.44 1015.71 1014.98 1014.22 1013.44 1012.59 1011.57 1010.86 1010.10 1009.68 1009.22 1008.86 1008.14 1005.90 1002.13 1002.60 1001.82 1001.05 1001.12 1000.42 1000.22 1000.26 1000.21 1000.41 999.95 998.62 997.80 997.40 996.62 996.89 999.55 997.31 998.01 999.28 999.60 1000.20 1000.37 1002.00 1002.86 1003.21 1003.67 1004.22 1004.76 1005.38 1005.89
1016.42 1015.67 1014.83 1013.97 1013.06 1012.20 1011.11 1010.13 1009.47 1009.52 1008.95 1007.70 1006.53 1004.97 1002.15 1000.95 1000.82 1001.17 1000.93 1000.82 999.92 999.80 999.90 999.90 999.20 998.12 997.28 996.19 996.24 996.21 996.02 996.97 997.54 998.31 998.95 999.41 1000.05 1001.22 1002.15 1002.38 1002.78 1003.34 1004.06 1004.79 1005.23
1016.27 1015.48 1014.67 1013.77 1012.77 1011.83 1010.72 1008.43 1008.76 1007.96 1006.33 1003.99 1002.95 1001.86 1001.39 1001.22 1001.60 1001.09 1000.70 1000.67 999.96 999.34 998.96 998.74 998.04 996.93 995.99 995.82 996.21 996.32 996.47 996.95 997.36 998.14 998.32 998.18 998.69 999.65 1001.24 1001.64 1001.89 1002.38 1003.13 1003.81 1004.11
1016.23 1015.32 1014.45 1013.53 1012.44 1011.27 1010.79 1007.33 1007.82 1007.82 1005.21 1002.85 1002.39 1002.01 1001.59 1001.63 1000.55 1000.07 1000.29 1000.09 999.58 998.64 998.56 997.87 997.24 996.72 996.27 996.36 997.09 996.89 996.67 996.63 997.09 997.71 997.99 997.43 998.21 998.32 999.74 1000.65 1000.92 1001.50 1002.05 1002.78 1003.39
1016.19 1015.36 1014.38 1013.28 1012.15 1010.73 1008.72 1007.95 1007.78 1007.28 1005.00 1001.35 1001.33 1001.09 1001.00 1001.43 1000.11 999.02 999.88 999.39 998.65 998.24 997.61 996.99 996.39 996.88 996.17 996.66 997.16 996.77 996.34 996.18 997.00 997.30 997.03 997.56 999.16 999.93 999.68 1000.14 1000.17 1000.68 1001.25 1001.88 1002.75
1016.04 1015.34 1014.54 1013.22 1012.15 1009.34 1007.73 1007.91 1007.33 1007.21 1003.96 1000.52 1000.60 1000.29 1000.91 1000.72 999.65 998.75 999.00 998.95 998.18 997.64 997.27 996.56 996.30 995.97 996.09 996.65 996.73 996.15 995.96 996.68 997.26 997.05 997.02 998.01 998.04 1000.45 1001.35 999.64 999.57 999.78 1000.43 1001.13 1002.21
1015.87 1015.29 1014.61 1014.62 1012.03 1008.42 1008.02 1007.66 1007.43 1006.67 1002.11 999.95 999.82 1000.66 999.91 999.79 998.16 998.63 998.76 998.61 997.74 997.34 997.13 996.19 996.12 995.95 996.23 996.34 996.58 996.28 996.58 997.25 997.38 997.28 996.69 995.95 996.92 997.62 997.08 997.69 998.27 999.04 999.47 1000.32 1001.69
1015.60 1015.11 1014.63 1012.10 1011.30 1008.84 1008.23 1007.80 1007.07 1004.87 1000.14 999.16 999.29 999.55 999.53 999.30 998.53 997.81 998.71 998.68 998.14 997.40 996.94 996.07 995.87 995.82 996.06 996.42 996.40 996.52 996.84 997.12 997.49 997.27 996.64 996.81 997.84 997.08 997.38 995.96 996.90 997.84 998.83 999.78 1000.90
1015.03 1014.62 1014.61 1012.25 1008.67 1008.77 1008.35 1007.11 1004.80 1001.61 999.44 998.57 998.30 998.63 998.25 997.86 998.02 998.26 998.28 998.13 997.42 997.06 996.20 996.43 995.89 996.41 996.36 996.21 996.18 996.38 996.53 996.51 996.42 996.25 997.08 998.24 998.89 995.73 996.24 996.74 997.10 997.51 998.30 999.36 1000.39
1014.17 1013.75 1012.00 1010.89 1009.42 1009.11 1007.92 1006.00 1002.75 999.84 998.85 999.14 998.84 998.31 997.74 997.04 997.21 997.38 997.39 996.94 996.85 996.17 995.26 995.24 995.17 995.71 995.93 996.12 995.46 995.59 996.07 995.80 995.36 995.18 998.00 999.43 999.50 995.71 996.20 996.78 997.47 997.89 998.17 999.24 1000.22
1013.18 1010.66 1009.69 1009.02 1009.37 1009.15 1007.29 1004.12 1001.20 999.81 999.54 999.42 998.55 997.91 997.15 996.95 996.83 996.71 996.51 996.09 995.77 995.68 994.98 993.99 994.07 994.36 995.16 995.83 995.69 994.99 995.29 995.64 995.15 994.44 995.48 997.46 997.62 996.49 996.41 996.78 997.78 998.04 998.74 999.48 1000.58
1012.68 1009.23 1008.04 1008.84 1008.95 1008.38 1006.29 1003.15 1000.95 1000.95 1001.12 1000.10 998.62 997.93 996.41 996.61 997.03 996.13 995.86 995.46 995.10 995.11 995.26 994.24 993.59 993.78 994.55 995.54 995.41 995.15 994.67 994.73 994.79 994.39 994.46 996.19 995.25 995.48 996.21 996.60 997.92 998.28 998.99 1000.07 1001.24
1012.04 1008.03 1008.40 1008.51 1008.52 1007.06 1004.47 1002.46 1001.49 1001.30 1001.65 1000.61 999.28 998.70 997.58 996.72 996.56 995.61 995.46 995.26 995.09 994.99 995.58 995.04 994.33 994.12 994.33 994.75 994.94 994.99 994.83 994.64 994.12 993.86 993.85 993.96 994.82 997.22 1000.06 997.61 997.80 998.50 999.63 1000.77 1001.83
1010.17 1006.94 1008.18 1008.27 1007.01 1005.06 1003.39 1002.36 1002.41 1001.78 1001.86 1001.47 1000.92 999.99 998.98 998.09 997.30 996.09 995.07 995.06 995.64 995.66 995.60 995.49 994.45 994.12 993.82 994.29 994.84 994.15 994.06 994.43 993.74 993.74 993.14 993.20 994.69 995.83 996.47 995.90 997.33 998.30 999.95 1001.24 1002.34
1009.41 1007.27 1007.74 1007.54 1004.93 1003.34 1003.08 1002.74 1002.73 1002.12 1001.75 1001.26 1000.86 1000.21 999.58 999.05 998.22 996.83 995.86 995.70 996.48 996.24 995.48 995.66 995.17 994.25 993.72 993.75 994.18 993.83 993.77 993.61 993.62 993.17 992.95 993.07 993.45 994.46 995.07 995.89 997.65 998.72 1000.24 1001.87 1002.81
1010.14 1006.47 1006.48 1006.64 1005.22 1004.25 1002.72 1002.63 1002.27 1002.48 1002.16 1001.56 1001.20 1000.49 1000.01 999.32 998.73 997.62 996.81 996.44 997.06 996.78 996.72 996.28 995.09 994.31 993.20 993.04 992.97 993.67 993.96 993.60 993.09 992.36 992.12 992.29 992.96 993.84 994.19 995.46 997.65 999.10 1000.59 1002.12 1003.22
1009.77 1007.41 1006.97 1004.87 1004.36 1003.99 1003.48 1002.93 1002.46 1002.08 1002.17 1001.79 1001.44 1000.91 1000.03 999.22 998.30 997.59 997.35 996.59 996.85 997.18 997.10 996.66 995.19 994.76 993.97 993.30 992.86 992.80 993.00 993.68 993.32 993.00 992.33 992.01 991.97 992.30 993.18 994.80 997.14 998.90 1001.00 1002.21 1003.37
1011.29 1010.04 1008.46 1006.56 1005.38 1004.99 1004.22 1003.50 1002.88 1002.33 1002.19 1001.46 1001.35 1000.42 1000.14 999.82 998.55 997.65 997.07 996.74 996.03 996.57 996.77 996.44 995.67 995.05 994.42 993.78 993.41 993.00 992.96 992.56 992.79 992.87 992.79 992.56 992.14 992.20 993.17 994.92 997.36 998.87 1000.80 1002.07 1003.26
1012.94 1011.55 1010.43 1007.15 1005.35 1004.52 1004.40 1004.03 1003.32 1003.06 1002.47 1002.02 1001.69 1001.10 1001.05 1000.59 1000.02 999.31 998.62 997.98 997.02 996.60 996.02 995.61 995.48 995.21 994.40 994.19 993.69 992.90 992.47 992.49 992.39 992.09 992.34 992.21 992.40 992.50 993.02 994.58 996.79 998.72 1000.70 1001.63 1002.85
Thickness
5756 5763 5769 5775 5782 5788 5794 5801 5807 5811 5816 5822 5829 5833 5836 5841 5853 5862 5868 5877 5882 5884 5882 5893 5890 5891 5893 5892 5899 5902 5868 5843 5840 5834 5823 5841 5828 5834 5836 5821 5822 5824 5814 5813 5808
5754 5760 5767 5773 5780 5787 5793 5799 5806 5811 5817 5824 5830 5834 5838 5842 5858 5872 5881 5885 5885 5885 5883 5885 5884 5895 5892 5894 5901 5897 5856 5842 5862 5857 5839 5841 5834 5827 5823 5818 5813 5819 5822 5815 5808
5751 5758 5764 5771 5778 5785 5792 5798 5805 5811 5818 5825 5831 5836 5839 5844 5858 5879 5886 5887 5888 5887 5891 5896 5897 5901 5900 5910 5903 5887 5854 5865 5857 5861 5857 5842 5836 5842 5835 5823 5823 5810 5811 5810 5806
5746 5754 5761 5768 5776 5783 5790 5797 5804 5811 5816 5823 5832 5838 5842 5854 5838 5886 5889 5889 5891 5894 5890 5891 5899 5900 5901 5891 5899 5866 5872 5870 5863 5864 5855 5843 5848 5836 5838 5833 5842 5829 5820 5814 5806
5743 5749 5758 5766 5774 5781 5788 5796 5803 5810 5817 5822 5831 5836 5853 5855 5871 5894 5892 5892 5894 5890 5885 5888 5891 5898 5894 5899 5897 5878 5873 5873 5869 5865 5860 5859 5842 5836 5832 5842 5843 5831 5821 5815 5814
5740 5746 5754 5762 5771 5779 5786 5795 5803 5810 5817 5822 5829 5835 5847 5844 5897 5901 5900 5898 5899 5892 5892 5896 5893 5900 5897 5897 5885 5885 5879 5876 5875 5866 5863 5852 5846 5849 5836 5845 5835 5827 5822 5821 5820
5736 5743 5750 5758 5767 5777 5786 5794 5802 5810 5817 5822 5827 5836 5848 5864 5895 5902 5901 5900 5906 5900 5890 5904 5905 5893 5902 5888 5897 5890 5873 5880 5876 5872 5865 5864 5842 5837 5846 5844 5832 5828 5827 5826 5825
5730 5738 5747 5755 5764 5774 5784 5793 5802 5810 5816 5822 5825 5837 5847 5891 5895 5891 5901 5897 5905 5907 5901 5909 5909 5897 5895 5904 5890 5879 5883 5852 5877 5874 5873 5865 5827 5846 5854 5844 5834 5832 5831 5826 5827
5725 5734 5743 5752 5761 5771 5782 5792 5801 5807 5814 5820 5828 5838 5846 5884 5876 5895 5899 5889 5899 5901 5904 5903 5897 5888 5898 5879 5880 5882 5781 5865 5869 5881 5873 5862 5845 5853 5860 5851 5841 5838 5836 5830 5826
5719 5728 5738 5749 5760 5770 5781 5792 5799 5802 5811 5824 5832 5824 5855 5857 5881 5886 5897 5894 5889 5889 5882 5880 5880 5872 5884 5889 5848 5848 5877 5873 5865 5878 5875 5862 5854 5858 5859 5856 5849 5846 5841 5834 5831
5714 5723 5733 5744 5756 5767 5781 5801 5799 5800 5815 5828 5836 5841 5852 5870 5878 5873 5888 5880 5885 5879 5856 5876 5859 5859 5888 5902 5893 5888 5880 5868 5878 5883 5873 5874 5872 5869 5862 5860 5855 5853 5847 5842 5841
5710 5719 5728 5738 5751 5765 5772 5798 5790 5793 5796 5836 5838 5839 5854 5859 5848 5867 5886 5859 5860 5851 5867 5864 5850 5885 5902 5895 5878 5878 5873 5871 5881 5885 5877 5884 5871 5886 5874 5864 5865 5859 5855 5849 5848
5705 5713 5723 5734 5746 5763 5781 5783 5795 5799 5791 5828 5836 5835 5840 5848 5844 5858 5869 5866 5857 5851 5860 5853 5876 5887 5893 5878 5864 5873 5874 5878 5864 5879 5893 5880 5834 5840 5869 5873 5873 5871 5868 5861 5851
5701 5708 5717 5729 5740 5765 5772 5782 5791 5794 5780 5811 5818 5831 5837 5843 5833 5873 5878 5866 5859 5849 5861 5865 5890 5886 5880 5865 5876 5863 5896 5879 5867 5865 5845 5861 5837 5827 5800 5859 5868 5871 5868 5864 5857
5697 5703 5711 5712 5734 5755 5763 5777 5784 5782 5762 5811 5819 5845 5844 5831 5849 5848 5877 5862 5846 5854 5859 5855 5866 5869 5859 5867 5882 5869 5889 5870 5866 5859 5870 5883 5855 5854 5878 5857 5865 5872 5874 5871 5862
5694 5699 5705 5725 5732 5751 5759 5767 5770 5751 5759 5797 5820 5813 5814 5826 5835 5853 5846 5862 5866 5853 5859 5865 5892 5881 5873 5880 5884 5890 5872 5867 5864 5862 5842 5857 5839 5838 5836 5868 5878 5880 5878 5876 5868
5693 5697 5699 5716 5742 5747 5753 5753 5741 5750 5802 5793 5802 5813 5817 5818 5822 5824 5824 5823 5824 5813 5826 5846 5855 5869 5878 5859 5878 5873 5856 5825 5825 5836 5825 5844 5810 5866 5878 5884 5882 5880 5880 5878 5873
5695 5699 5714 5721 5734 5739 5743 5737 5727 5779 5785 5797 5800 5807 5801 5823 5822 5822 5820 5817 5839 5843 5841 5826 5819 5853 5872 5858 5860 5863 5857 5834 5808 5830 5802 5793 5784 5866 5890 5893 5887 5884 5886 5881 5874
5699 5719 5722 5731 5729 5732 5730 5725 5750 5772 5780 5779 5796 5789 5799 5813 5818 5818 5819 5823 5840 5849 5829 5843 5839 5882 5872 5871 5871 5864 5845 5874 5855 5876 5848 5822 5839 5857 5883 5882 5875 5875 5875 5872 5868
5701 5723 5727 5726 5726 5725 5721 5726 5758 5766 5767 5777 5771 5790 5799 5802 5797 5812 5815 5837 5838 5853 5861 5857 5836 5872 5870 5868 5870 5863 5888 5847 5855 5821 5820 5830 5864 5867 5865 5868 5867 5866 5866 5864 5861
5704 5720 5720 5724 5723 5717 5716 5737 5752 5765 5760 5759 5769 5773 5790 5794 5802 5812 5814 5832 5844 5843 5852 5852 5846 5846 5861 5840 5839 5848 5845 5856 5869 5866 5837 5839 5854 5845 5786 5847 5866 5864 5862 5857 5853
5716 5718 5720 5720 5705 5723 5724 5741 5717 5748 5756 5753 5760 5767 5772 5782 5788 5802 5814 5825 5839 5840 5822 5844 5846 5823 5839 5864 5865 5869 5857 5855 5839 5836 5868 5866 5832 5871 5853 5870 5875 5870 5859 5855 5850
5715 5719 5721 5716 5707 5721 5728 5728 5733 5736 5742 5748 5750 5765 5775 5770 5767 5795 5810 5830 5823 5826 5826 5837 5820 5809 5825 5850 5856 5845 5859 5868 5868 5875 5851 5845 5858 5887 5887 5879 5872 5863 5856 5847 5843
5704 5712 5714 5711 5720 5711 5719 5718 5720 5735 5735 5746 5747 5761 5760 5763 5779 5778 5791 5812 5817 5821 5813 5830 5826 5819 5818 5834 5858 5830 5839 5856 5862 5852 5861 5864 5865 5865 5879 5872 5862 5857 5852 5842 5836
5708 5707 5707 5709 5710 5712 5714 5714 5711 5714 5733 5740 5736 5744 5752 5751 5769 5775 5789 5801 5810 5801 5813 5817 5804 5822 5836 5849 5856 5852 5846 5839 5838 5852 5846 5868 5872 5886 5886 5877 5864 5858 5844 5836 5830
5683 5681 5694 5701 5708 5699 5691 5702 5706 5717 5719 5724 5727 5746 5750 5744 5766 5770 5790 5793 5803 5808 5804 5816 5795 5814 5811 5836 5840 5833 5842 5853 5848 5850 5851 5859 5862 5901 5894 5878 5858 5852 5838 5830 5826
5674 5680 5675 5694 5704 5702 5694 5698 5705 5713 5721 5727 5726 5728 5726 5742 5757 5769 5779 5787 5797 5795 5800 5808 5802 5797 5790 5820 5823 5808 5833 5841 5847 5861 5855 5838 5863 5888 5884 5866 5857 5847 5835 5832 5827